TimeCDT,TemperatureF,Dew PointF,Humidity,Sea Level PressureIn,VisibilityMPH,Wind Direction,Wind SpeedMPH,Gust SpeedMPH,PrecipitationIn,Events,Conditions,WindDirDegrees,DateUTC
12:34 AM,66.2,60.8,83,29.97,10.0,NNE,9.2,-,0.01,,Overcast,30,2013-07-02 05:34:00
12:53 AM,66.9,61.0,81,29.96,10.0,NNE,10.4,-,0.01,,Overcast,20,2013-07-02 05:53:00
1:11 AM,66.2,60.8,83,29.97,10.0,NNE,10.4,-,N/A,,Mostly Cloudy,20,2013-07-02 06:11:00
1:51 AM,66.2,60.8,83,29.96,10.0,NNE,11.5,-,N/A,,Overcast,20,2013-07-02 06:51:00
1:53 AM,66.9,61.0,81,29.95,10.0,NNE,11.5,-,N/A,,Overcast,20,2013-07-02 06:53:00
2:07 AM,66.2,60.8,83,29.95,10.0,North,10.4,-,N/A,,Overcast,10,2013-07-02 07:07:00
2:49 AM,66.2,59.0,78,29.94,10.0,NNE,5.8,-,N/A,,Overcast,20,2013-07-02 07:49:00
2:53 AM,66.9,59.0,76,29.94,10.0,North,5.8,-,N/A,,Overcast,10,2013-07-02 07:53:00
3:53 AM,66.9,57.0,70,29.94,10.0,North,12.7,-,0.00,Rain,Light Rain,10,2013-07-02 08:53:00
4:53 AM,66.0,57.0,73,29.94,10.0,North,11.5,-,0.00,Rain,Light Rain,10,2013-07-02 09:53:00
5:53 AM,64.0,57.0,78,29.96,7.0,NNE,8.1,-,0.01,Rain,Light Rain,20,2013-07-02 10:53:00
6:40 AM,62.6,57.2,82,29.98,4.0,North,10.4,-,0.04,Rain,Light Rain,360,2013-07-02 11:40:00
6:53 AM,62.1,57.9,86,29.97,3.0,North,9.2,-,0.08,Rain,Rain,360,2013-07-02 11:53:00
7:04 AM,62.6,57.2,82,29.98,2.5,North,9.2,-,0.05,Rain,Rain,10,2013-07-02 12:04:00
7:32 AM,62.6,59.0,88,29.99,2.0,North,10.4,-,0.17,Rain,Rain,10,2013-07-02 12:32:00
7:39 AM,62.6,59.0,88,29.99,1.2,North,11.5,-,0.24,Rain,Heavy Rain,10,2013-07-02 12:39:00
7:53 AM,62.1,59.0,90,29.99,2.0,North,9.2,-,0.29,Rain,Rain,360,2013-07-02 12:53:00
8:03 AM,62.6,59.0,88,29.99,3.0,North,5.8,-,0.02,Rain,Rain,360,2013-07-02 13:03:00
8:16 AM,62.6,59.0,88,29.99,3.0,North,9.2,-,0.05,Rain,Rain,360,2013-07-02 13:16:00
9:08 AM,62.6,59.0,88,30.01,3.0,North,8.1,-,0.04,Rain,Rain,350,2013-07-02 14:08:00
9:53 AM,62.1,59.0,90,30.00,3.0,NNW,11.5,-,0.11,Rain,Rain,340,2013-07-02 14:53:00
10:20 AM,60.8,59.0,94,30.01,4.0,North,10.4,-,0.05,Rain,Rain,350,2013-07-02 15:20:00
10:53 AM,61.0,59.0,93,30.01,4.0,North,10.4,-,0.10,Rain,Rain,350,2013-07-02 15:53:00
11:14 AM,60.8,59.0,94,30.02,2.5,NNW,8.1,-,0.05,Rain,Rain,340,2013-07-02 16:14:00
11:24 AM,62.6,59.0,88,30.02,3.0,NNW,9.2,-,0.08,Rain,Rain,340,2013-07-02 16:24:00
11:31 AM,62.6,59.0,88,30.02,3.0,NNW,8.1,-,0.10,Rain,Rain,340,2013-07-02 16:31:00
11:53 AM,62.1,59.0,90,30.02,3.0,NNW,9.2,-,0.14,Rain,Rain,340,2013-07-02 16:53:00
12:53 PM,62.1,60.1,93,30.02,6.0,NNW,12.7,-,0.10,Rain,Light Rain,340,2013-07-02 17:53:00
1:00 PM,62.6,60.8,94,30.03,7.0,NNW,11.5,-,0.01,Rain,Light Rain,340,2013-07-02 18:00:00
1:53 PM,63.0,60.1,90,30.02,7.0,NNW,12.7,-,0.04,Rain,Light Rain,340,2013-07-02 18:53:00
2:53 PM,64.0,60.1,87,30.02,10.0,North,11.5,-,0.00,,Overcast,350,2013-07-02 19:53:00
3:10 PM,64.4,60.8,88,30.02,6.0,NNW,11.5,-,0.01,Rain,Light Rain,340,2013-07-02 20:10:00
3:53 PM,64.0,60.1,87,30.02,10.0,NNW,9.2,-,0.02,Rain,Light Rain,340,2013-07-02 20:53:00
4:08 PM,64.4,60.8,88,30.02,10.0,North,12.7,-,0.00,Rain,Light Rain,350,2013-07-02 21:08:00
4:53 PM,64.0,60.1,87,30.02,10.0,NNW,10.4,-,0.01,Rain,Light Rain,340,2013-07-02 21:53:00
5:53 PM,64.0,57.9,80,30.01,10.0,North,8.1,-,0.01,,Overcast,350,2013-07-02 22:53:00
6:53 PM,63.0,55.9,78,30.02,10.0,NNW,4.6,-,0.00,Rain,Light Rain,330,2013-07-02 23:53:00
7:53 PM,62.1,59.0,90,30.02,10.0,Calm,Calm,-,0.00,,Overcast,0,2013-07-03 00:53:00
8:53 PM,63.0,59.0,87,30.02,10.0,Calm,Calm,-,0.00,Rain,Light Rain,0,2013-07-03 01:53:00
9:53 PM,63.0,60.1,90,30.04,10.0,Calm,Calm,-,0.00,,Overcast,0,2013-07-03 02:53:00
10:53 PM,63.0,60.1,90,30.04,10.0,WSW,4.6,-,N/A,,Overcast,240,2013-07-03 03:53:00
11:53 PM,63.0,60.1,90,30.04,9.0,West,4.6,-,N/A,,Overcast,260,2013-07-03 04:53:00